DW8868 Weather Reports


Display with metric or nautical units.
time (UTC)temp
F
wind
direction
speed
MPH
gust
MPH
rain 1hr
in
rain 24hr
in
rain mn
in
humidity
%
barometer
mb
20260504151010 68 189 4.0 5.0 0.00 0.00 0.00 10 1014.0
20260504150508 68 136 1.0 1.0 0.00 0.00 0.00 10 1014.1
20260504140933 64 211 3.0 3.0 0.00 0.00 0.00 10 1014.1
20260504140430 63 143 2.0 2.0 0.00 0.00 0.00 10 1013.9
20260504130355 56 169 1.0 2.0 0.00 0.00 0.00 10 1014.4
20260504120318 51 193 2.0 2.0 0.00 0.00 0.00 10 1014.8
20260504110242 49 146 1.0 1.0 0.00 0.00 0.00 10 1014.9
20260504100205 48 118 0.0 0.0 0.00 0.00 0.00 10 1014.6
20260504090128 50 159 1.0 2.0 0.00 0.00 0.00 10 1015.1
20260504081558 50 141 0.0 0.0 0.00 0.00 0.00 10 1015.1
20260504081054 50 148 0.0 0.0 0.00 0.00 0.00 10 1015.1
20260504080551 50 134 0.0 0.0 0.00 0.00 0.00 10 1015.1
20260504050404 44 112 0.0 0.0 0.00 0.00 0.00 10 1015.8
20260504045901 44 112 0.0 0.0 0.00 0.00 0.00 10 1015.6
20260504045356 44 112 0.0 0.0 0.00 0.00 0.00 10 1015.6
20260504044853 44 112 0.0 0.0 0.00 0.00 0.00 10 1015.6
20260504044350 44 112 0.0 0.0 0.00 0.00 0.00 10 1015.8
20260504043848 44 112 0.0 0.0 0.00 0.00 0.00 10 1015.6
20260504043344 44 112 0.0 0.0 0.00 0.00 0.00 10 1015.6
20260504042842 44 112 0.0 0.0 0.00 0.00 0.00 10 1015.6
20260504042338 44 112 0.0 0.0 0.00 0.00 0.00 10 1015.5
20260504041834 44 112 0.0 0.0 0.00 0.00 0.00 10 1015.5
20260504041330 44 112 0.0 0.0 0.00 0.00 0.00 10 1015.4
20260504040827 44 112 0.0 0.0 0.00 0.00 0.00 10 1015.5
20260504040325 44 112 0.0 0.0 0.00 0.00 0.00 10 1015.4
20260504035820 44 112 0.0 0.0 0.00 0.00 0.00 10 1015.5
20260504035318 44 112 0.0 0.0 0.00 0.00 0.00 10 1015.5
20260504034815 44 112 0.0 0.0 0.00 0.00 0.00 10 1015.5
20260504034313 45 112 0.0 0.0 0.00 0.00 0.00 10 1015.6
20260504033809 45 112 0.0 0.0 0.00 0.00 0.00 10 1015.4
20260504033308 45 112 0.0 0.0 0.00 0.00 0.00 10 1015.5
20260504032804 45 112 0.0 0.0 0.00 0.00 0.00 10 1015.4
20260504032301 46 112 0.0 0.0 0.00 0.00 0.00 10 1015.6
20260504031757 46 112 0.0 0.0 0.00 0.00 0.00 10 1015.4
20260504031255 46 112 0.0 0.0 0.00 0.00 0.00 10 1015.4
20260504030751 46 112 0.0 0.0 0.00 0.00 0.00 10 1015.4
20260504030248 46 112 0.0 0.0 0.00 0.00 0.00 10 1015.3
20260504025744 46 112 0.0 0.0 0.00 0.00 0.00 10 1015.3
20260504025241 46 112 0.0 0.0 0.00 0.00 0.00 10 1015.5
20260504024738 46 112 0.0 0.0 0.00 0.00 0.00 10 1015.3
20260504024235 46 112 0.0 0.0 0.00 0.00 0.00 10 1015.2
20260504023732 46 112 0.0 0.0 0.00 0.00 0.00 10 1015.3
20260504023228 46 112 0.0 0.0 0.00 0.00 0.00 10 1015.1
20260504022724 46 112 0.0 0.0 0.00 0.00 0.00 10 1015.3
20260504022220 47 112 0.0 0.0 0.00 0.00 0.00 10 1015.4
20260504021718 47 112 0.0 0.0 0.00 0.00 0.00 10 1015.3
20260504021215 47 112 0.0 0.0 0.00 0.00 0.00 10 1014.8
20260504020712 47 112 0.0 0.0 0.00 0.00 0.00 10 1015.0
20260504020208 47 112 0.0 0.0 0.00 0.00 0.00 10 1014.9
20260504015705 48 112 0.0 0.0 0.00 0.00 0.00 10 1014.7
20260504015201 48 112 0.0 0.0 0.00 0.00 0.00 10 1014.8
20260504014656 48 112 0.0 0.0 0.00 0.00 0.00 10 1014.9
20260504014154 48 112 0.0 0.0 0.00 0.00 0.00 10 1014.9
20260504013651 48 112 0.0 0.0 0.00 0.00 0.00 10 1014.6
20260504013148 49 112 0.0 0.0 0.00 0.00 0.00 10 1014.7
20260504012645 49 112 0.0 0.0 0.00 0.00 0.00 10 1014.9
20260504012143 49 112 0.0 0.0 0.00 0.00 0.00 10 1014.6
20260504011640 50 113 0.0 0.0 0.00 0.00 0.00 10 1014.5
20260504011136 50 112 0.0 0.0 0.00 0.00 0.00 10 1014.7
20260504010632 50 99 0.0 0.0 0.00 0.00 0.00 10 1014.8
20260504010128 51 98 0.0 0.0 0.00 0.00 0.00 10 1014.5
20260504005625 51 98 0.0 0.0 0.00 0.00 0.00 10 1014.6
20260504005122 52 98 0.0 0.0 0.00 0.00 0.00 10 1014.5
20260504004620 52 98 0.0 0.0 0.00 0.00 0.00 10 1014.7
20260504004117 53 98 0.0 0.0 0.00 0.00 0.00 10 1014.3
20260504003613 53 98 0.0 0.0 0.00 0.00 0.00 10 1014.5
20260504003110 54 98 0.0 0.0 0.00 0.00 0.00 10 1014.3
20260504002607 54 98 0.0 0.0 0.00 0.00 0.00 10 1014.4
20260504002104 55 98 0.0 0.0 0.00 0.00 0.00 10 1014.5
20260504001602 55 98 0.0 0.0 0.00 0.00 0.00 10 1014.4
20260504001057 56 101 0.0 0.0 0.00 0.00 0.00 10 1014.4
20260504000555 57 98 0.0 0.0 0.00 0.00 0.00 10 1014.2
20260504000052 57 98 0.0 0.0 0.00 0.00 0.00 10 1014.4
20260503235550 58 98 0.0 0.0 0.00 0.00 0.00 10 1014.1
20260503235047 58 92 0.0 0.0 0.00 0.00 0.00 10 1014.1
20260503234545 59 108 0.0 0.0 0.00 0.00 0.00 10 1014.0
20260503234043 60 112 0.0 0.0 0.00 0.00 0.00 10 1014.0
20260503233539 60 118 0.0 0.0 0.00 0.00 0.00 10 1014.2
20260503233035 60 96 0.0 0.0 0.00 0.00 0.00 10 1014.2
20260503232532 60 113 1.0 2.0 0.00 0.00 0.00 10 1014.1
20260503232030 60 116 2.0 2.0 0.00 0.00 0.00 10 1014.0
20260503231528 60 60 0.0 0.0 0.00 0.00 0.00 10 1014.0
20260503231024 61 144 1.0 1.0 0.00 0.00 0.00 10 1013.8
20260503230520 61 112 0.0 0.0 0.00 0.00 0.00 10 1013.7
20260503230018 61 154 3.0 5.0 0.00 0.00 0.00 10 1013.6
20260503225515 61 136 0.0 0.0 0.00 0.00 0.00 10 1013.7
20260503225010 62 103 0.0 0.0 0.00 0.00 0.00 10 1014.0
20260503224508 62 106 1.0 1.0 0.00 0.00 0.00 10 1013.8
20260503224005 62 37 2.0 3.0 0.00 0.00 0.00 10 1014.0
20260503223503 62 104 0.0 0.0 0.00 0.00 0.00 10 1013.8
20260503222958 62 23 2.0 3.0 0.00 0.00 0.00 10 1013.8
20260503222457 62 12 3.0 3.0 0.00 0.00 0.00 10 1014.1
20260503221954 63 98 0.0 0.0 0.00 0.00 0.00 10 1013.7
20260503221453 62 196 3.0 3.0 0.00 0.00 0.00 10 1013.8
20260503220950 63 124 1.0 1.0 0.00 0.00 0.00 10 1013.9
20260503220446 62 102 0.0 1.0 0.00 0.00 0.00 10 1014.0
20260503215943 63 124 2.0 2.0 0.00 0.00 0.00 10 1013.9
20260503215439 63 120 1.0 1.0 0.00 0.00 0.00 10 1014.0
20260503214937 63 72 1.0 1.0 0.00 0.00 0.00 10 1014.0
20260503214435 63 283 0.0 1.0 0.00 0.00 0.00 10 1013.9
20260503213932 63 177 2.0 3.0 0.00 0.00 0.00 10 1014.2
20260503213430 64 98 1.0 2.0 0.00 0.00 0.00 10 1014.0
20260503212926 64 130 2.0 3.0 0.00 0.00 0.00 10 1014.2
20260503212424 63 36 2.0 2.0 0.00 0.00 0.00 10 1014.2
20260503211921 64 18 3.0 5.0 0.00 0.00 0.00 10 1014.1
20260503211418 63 48 2.0 2.0 0.00 0.00 0.00 10 1014.1
20260503210913 63 155 1.0 2.0 0.00 0.00 0.00 10 1014.3
20260503210410 64 42 1.0 2.0 0.00 0.00 0.00 10 1014.3
20260503205905 63 99 0.0 1.0 0.00 0.00 0.00 10 1014.0
20260503205402 64 132 1.0 2.0 0.00 0.00 0.00 10 1014.1
20260503204858 64 66 3.0 3.0 0.00 0.00 0.00 10 1014.5
20260503204356 63 174 2.0 2.0 0.00 0.00 0.00 10 1014.5
20260503203853 64 210 3.0 3.0 0.00 0.00 0.00 10 1014.3
20260503203350 63 69 2.0 3.0 0.00 0.00 0.00 10 1014.3
20260503202847 63 89 0.0 1.0 0.00 0.00 0.00 10 1014.5
20260503202345 63 156 1.0 2.0 0.00 0.00 0.00 10 1014.6
20260503201843 63 258 1.0 2.0 0.00 0.00 0.00 10 1014.5
20260503201340 63 231 4.0 5.0 0.00 0.00 0.00 10 1014.1
20260503200838 63 38 1.0 2.0 0.00 0.00 0.00 10 1014.4
20260503200333 63 332 3.0 3.0 0.00 0.00 0.00 10 1014.6
20260503195831 63 206 6.0 7.0 0.00 0.00 0.00 10 1014.9
20260503195327 64 73 2.0 3.0 0.00 0.00 0.00 10 1014.7
20260503194824 62 159 2.0 3.0 0.00 0.00 0.00 10 1014.9
20260503194320 62 349 6.0 7.0 0.00 0.00 0.00 10 1014.9
20260503193816 63 104 3.0 5.0 0.00 0.00 0.00 10 1014.9
20260503193313 63 304 3.0 5.0 0.00 0.00 0.00 10 1015.1
20260503192809 62 214 2.0 2.0 0.00 0.00 0.00 10 1015.0
20260503192305 62 252 4.0 6.0 0.00 0.00 0.00 10 1015.5
20260503191800 62 329 3.0 5.0 0.00 0.00 0.00 10 1015.4
20260503191258 61 240 1.0 5.0 0.00 0.00 0.00 10 1015.4
20260503190754 60 86 1.0 1.0 0.00 0.00 0.00 10 1015.5
20260503190251 59 106 1.0 2.0 0.00 0.00 0.00 10 1015.6
20260503185749 60 14 2.0 2.0 0.00 0.00 0.00 10 1015.5
20260503185244 62 352 2.0 2.0 0.00 0.00 0.00 10 1015.9
20260503184738 60 32 5.0 6.0 0.00 0.00 0.00 10 1015.6
20260503184235 60 3 4.0 6.0 0.00 0.00 0.00 10 1015.8
20260503183732 60 25 5.0 7.0 0.00 0.00 0.00 10 1015.5
20260503183229 61 37 3.0 5.0 0.00 0.00 0.00 10 1015.9
20260503182727 61 138 1.0 2.0 0.00 0.00 0.00 10 1015.8
20260503182226 60 134 4.0 7.0 0.00 0.00 0.00 10 1016.0
20260503181722 60 65 2.0 5.0 0.00 0.00 0.00 10 1015.9
20260503181219 59 122 2.0 3.0 0.00 0.00 0.00 10 1015.9
20260503180715 59 221 4.0 6.0 0.00 0.00 0.00 10 1016.1
20260503180214 58 2 3.0 3.0 0.00 0.00 0.00 10 1016.2
20260503175710 58 101 1.0 1.0 0.00 0.00 0.00 10 1016.1
20260503175208 60 50 3.0 5.0 0.00 0.00 0.00 10 1016.2
20260503174704 59 32 7.0 9.0 0.00 0.00 0.00 10 1016.1
20260503174201 60 103 3.0 5.0 0.00 0.00 0.00 10 1016.2
20260503173656 59 334 4.0 6.0 0.00 0.00 0.00 10 1016.4
20260503173153 59 186 3.0 6.0 0.00 0.00 0.00 10 1016.2
20260503172650 56 60 3.0 5.0 0.00 0.00 0.00 10 1016.5
20260503172147 58 77 3.0 3.0 0.00 0.00 0.00 10 1016.4
20260503171643 59 90 4.0 6.0 0.00 0.00 0.00 10 1016.6
20260503171141 58 139 1.0 2.0 0.00 0.00 0.00 10 1016.4
20260503170638 58 98 2.0 2.0 0.00 0.00 0.00 10 1016.6
20260503170135 59 286 2.0 3.0 0.00 0.00 0.00 10 1016.2